User: anonymous   Login
Location: Unspecified
(0.0000°N, 0.0000°E)
Time: 12:29:03
(UTC+00:00)
Language:

STSS DEMO 1 (USA 208) - Orbit

View from above orbital plane
View from above orbital plane
View from above satellite
View from above satellite

Ground track
Ground track

The orbit data is extracted from the following two-line orbital elements,

1 35937U 09052A   19103.82296176 0.00000000  00000-0  00000-0 0    01
2 35937  57.9878  23.7488 0012731 252.2923 107.7076 12.79331669    09
Epoch (UTC): 13 April 2019 19:45:03
Eccentricity: 0.0012731
inclination: 57.9878°
perigee height: 1334 km
apogee height: 1354 km
right ascension of ascending node: 23.7488°
argument of perigee: 252.2923°
revolutions per day: 12.79331669
mean anomaly at epoch: 107.7076°
orbit number at epoch: 0

The dashed part of the orbit path shows where the satellite is in the earth's shadow,  

DLR